C/2014 Q1 ( PanSTARRS )

Japanese version
Home page
Updated on August 9, 2016

---------------------------------------------------------------------

* Profile

Discovery Date August 16, 2014
Magnitude 18.4 mag
Discoverer Pan-STARRS 1 telescope (Haleakala)

* Pictures

* Orbital Elements

Epoch 2015 June 27.0 TT = JDT 2457200.5
T 2015 July 6.51258 TT                                  MPCW
q   0.3145608            (2000.0)            P               Q
z  +0.0010540      Peri.  120.05277     -0.59120668     -0.79977421
                   Node     8.76150     +0.26771660     -0.31635335
e   0.9996685      Incl.   43.10931     +0.76079070     -0.51017818
From 579 observations 2014 Aug. 16-2016 Feb. 29, mean residual 0".4.
     Nongravitational parameters A1 = +1.09, A2 = +0.2707.

* Finding Charts

* Magnitudes Graph

        m1 = 8.5 + 5 log d +  8.5 log r(t - 4)  [   ,117]  (             - 2015 Oct. 31)
        m1 = 6.0 + 5 log d + 15.0 log r         [117,   ]  (2015 Oct. 31 -             )

---------------------------------------------------------------------

The orbital elements are published on M.P.E.C. 2016-H35.
The charts are made with StellaNavigator Ver.8 (AstroArts).
The magnitudes graphs are made with Comet for Windows.

---------------------------------------------------------------------

Copyright(C) Seiichi Yoshida (comet@aerith.net). All rights reserved.